GW3247 Weather Reports


time (UTC)temp
C
wind
direction
speed
KPH
gust
KPH
rain 1hr
cm
rain 24hr
cm
rain mn
cm
humidity
%
barometer
mb
20260902211555 15 231 3.2 12.9 0.00 0.66 0.66 90 1013.8
20260902210116 15 229 8.0 14.5 0.00 0.66 0.66 90 1014.0
20260902204556 15 233 6.4 16.1 0.00 0.66 0.66 90 1014.1
20260902203058 15 274 6.4 16.1 0.00 0.66 0.66 90 1014.1
20260902201553 15 238 8.0 17.7 0.00 0.66 0.66 90 1014.2
20260902200105 15 277 6.4 14.5 0.00 0.66 0.66 90 1014.0
20260902194559 15 234 6.4 16.1 0.00 0.79 0.66 90 1014.0
20260902193051 15 216 8.0 16.1 0.00 0.79 0.66 90 1013.9
20260902191559 15 217 6.4 14.5 0.00 0.79 0.66 90 1013.9
20260902190116 15 226 3.2 14.5 0.00 0.79 0.66 89 1014.0
20260902184602 15 203 6.4 17.7 0.00 0.91 0.66 89 1013.8
20260902183049 15 243 6.4 14.5 0.00 0.91 0.66 89 1013.7
20260902181605 15 278 8.0 19.3 0.00 0.91 0.66 88 1013.8
20260902180047 16 267 6.4 17.7 0.00 0.91 0.66 87 1013.6
20260902174547 16 209 8.0 22.5 0.00 0.91 0.66 86 1013.2
20260902173047 16 217 8.0 20.9 0.00 0.91 0.66 86 1013.4
20260902171607 16 225 12.9 20.9 0.00 0.91 0.66 85 1013.4
20260902170047 16 224 12.9 22.5 0.00 0.91 0.66 84 1013.4
20260902164545 16 252 11.3 20.9 0.00 0.91 0.66 84 1013.5
20260902163042 16 240 4.8 19.3 0.00 0.91 0.66 85 1013.6
20260902161546 16 224 11.3 20.9 0.00 0.91 0.66 85 1013.6
20260902160043 16 238 9.7 24.1 0.00 0.91 0.66 85 1013.5
20260902154540 16 244 9.7 25.7 0.00 0.91 0.66 86 1013.5
20260902153039 16 279 12.9 27.4 0.00 0.91 0.66 87 1013.9
20260902151538 16 238 4.8 19.3 0.00 0.91 0.66 88 1013.9
20260902150037 16 236 8.0 17.7 0.00 0.91 0.66 89 1014.0
20260902144537 16 222 8.0 17.7 0.03 0.91 0.66 89 1014.1
20260902143036 15 224 6.4 12.9 0.05 0.91 0.66 89 1014.2
20260902141545 15 198 4.8 9.7 0.18 0.91 0.66 88 1014.1
20260902140035 15 214 6.4 16.1 0.20 0.91 0.66 88 1014.2
20260902134539 15 229 4.8 17.7 0.18 0.89 0.64 87 1014.3
20260902133038 15 218 11.3 32.2 0.15 0.86 0.61 84 1014.5
20260902131535 17 139 12.9 22.5 0.03 0.71 0.48 80 1014.1
20260902130036 18 246 11.3 32.2 0.00 0.71 0.46 78 1014.0
20260902124532 18 219 16.1 27.4 0.00 0.71 0.46 74 1013.8
20260902123031 18 296 16.1 25.7 0.00 0.71 0.46 74 1014.0
20260902121530 18 232 8.0 25.7 0.05 0.71 0.46 73 1013.9
20260902120028 18 331 17.7 29.0 0.05 0.71 0.46 73 1014.0
20260902114528 18 274 9.7 20.9 0.05 0.71 0.46 77 1014.0
20260902113029 18 233 8.0 22.5 0.05 0.71 0.46 77 1014.3
20260902111524 18 188 12.9 29.0 0.00 0.69 0.43 75 1014.2
20260902110023 18 244 8.0 24.1 0.00 0.69 0.43 75 1014.3
20260902104528 18 230 4.8 20.9 0.00 0.69 0.43 76 1014.5
20260902103020 18 251 9.7 19.3 0.00 0.69 0.43 76 1014.4
20260902101516 18 231 4.8 16.1 0.00 0.69 0.43 80 1014.3
20260902100016 17 235 8.0 19.3 0.00 0.69 0.43 81 1014.5
20260902094514 17 281 4.8 20.9 0.00 0.69 0.43 81 1014.6
20260902093013 18 242 9.7 22.5 0.00 0.69 0.43 80 1014.3
20260902091512 17 220 4.8 19.3 0.00 0.69 0.43 83 1014.4
20260902090007 17 248 12.9 20.9 0.00 0.69 0.43 84 1014.7
20260902084515 17 238 9.7 16.1 0.00 0.69 0.43 85 1014.7
20260902083004 17 172 4.8 19.3 0.00 0.69 0.43 86 1014.7
20260902081503 16 239 8.0 17.7 0.00 0.69 0.43 87 1014.6
20260902080001 16 219 9.7 17.7 0.00 0.69 0.43 88 1014.6
20260902074612 16 212 6.4 17.7 0.00 0.69 0.43 89 1014.6
20260902073058 16 228 4.8 16.1 0.00 0.69 0.43 90 1014.5
20260902071557 15 228 6.4 16.1 0.00 0.69 0.43 90 1014.5
20260902070053 15 200 8.0 20.9 0.00 0.69 0.43 91 1014.4
20260902064551 15 215 9.7 17.7 0.00 0.69 0.43 91 1014.4
20260902063109 15 222 9.7 17.7 0.00 0.69 0.43 91 1014.3
20260902061552 14 204 9.7 20.9 0.00 0.69 0.43 92 1014.2
20260902054559 14 234 8.0 17.7 0.00 0.69 0.43 92 1014.3
20260902053045 14 217 6.4 16.1 0.00 0.69 0.43 91 1014.3
20260902051550 13 217 9.7 16.1 0.00 0.69 0.43 92 1014.3
20260902050043 13 205 6.4 17.7 0.00 0.69 0.43 92 1014.1
20260902044542 13 206 8.0 16.1 0.00 0.69 0.43 92 1014.1
20260902043141 13 219 8.0 16.1 0.00 0.69 0.43 91 1014.1
20260902041558 13 216 8.0 12.9 0.00 0.69 0.43 91 1014.2
20260902040038 13 214 8.0 14.5 0.00 0.69 0.43 91 1014.3
20260902034637 13 191 6.4 12.9 0.00 0.71 0.43 91 1014.4
20260902033036 13 206 6.4 14.5 0.00 0.71 0.43 91 1014.5
20260902031538 13 209 4.8 12.9 0.00 0.71 0.43 91 1014.5
20260902030034 12 201 4.8 9.7 0.00 0.71 0.43 90 1014.5
20260902024534 12 216 4.8 9.7 0.00 0.89 0.43 90 1014.6
20260902023033 12 219 6.4 11.3 0.00 0.89 0.43 90 1014.6
20260902021532 12 197 6.4 9.7 0.00 0.89 0.43 90 1014.6
20260902020033 12 231 6.4 9.7 0.00 0.89 0.43 89 1014.6
20260902014533 12 208 3.2 8.0 0.00 0.89 0.43 89 1014.7
20260902013027 12 209 3.2 8.0 0.00 0.89 0.43 89 1014.7
20260902011525 13 214 4.8 9.7 0.00 0.89 0.43 88 1014.7
20260902010025 13 239 4.8 9.7 0.00 0.89 0.43 88 1014.6
20260902004529 13 247 4.8 11.3 0.00 0.89 0.43 88 1014.6
20260902003101 13 247 3.2 11.3 0.00 0.89 0.43 87 1014.7
20260902001521 13 266 4.8 11.3 0.00 0.89 0.43 87 1014.7
20260902000029 13 239 4.8 12.9 0.00 0.89 0.43 86 1014.8
20260901234515 14 241 8.0 20.9 0.43 0.89 0.43 86 1014.8
20260901233015 15 281 14.5 29.0 0.43 0.89 0.43 88 1014.8
20260901231510 14 236 3.2 8.0 0.43 0.89 0.43 90 1014.8
20260901230013 14 262 6.4 14.5 0.43 0.89 0.43 90 1014.5
20260901224508 14 219 3.2 8.0 0.00 0.48 0.00 88 1014.5
20260901223005 14 215 4.8 6.4 0.00 0.48 0.00 88 1014.4
20260901221503 14 246 1.6 8.0 0.00 0.48 0.00 88 1014.4
20260901220005 14 207 3.2 8.0 0.00 0.48 0.00 87 1014.5
20260901214600 14 221 3.2 9.7 0.00 0.48 0.48 87 1014.5
20260901213103 14 271 1.6 6.4 0.00 0.48 0.48 86 1014.4